Location: Battersea Observatory
(44.4318°N, 76.3841°W)
Time: 22:11:00
(UTC-04:00)

Tiros 1 despin weight - Pass Details

Date: 29 January 2022
Orbit: 592 x 639 km, 48.2° (Epoch: 25 May)

Event Time Altitude Azimuth Distance (km) Brightness Sun altitude
Rises 22:17:40 0° 282° (WNW) 2,925 - -53.1°
Reaches altitude 10° 22:20:58 10° 258° (WSW) 2,020 - -53.6°
Maximum altitude 22:23:25 14° 226° (SW) 1,756 - -54.0°
Drops below altitude 10° 22:25:52 10° 194° (SSW) 2,021 - -54.3°
Sets 22:29:10 0° 170° (S) 2,927 - -54.8°
